Regional Weather Roundup
Issued by NWS New Orleans/Baton Rouge, LA

Home | Current Version | Previous Version | Text Only | Print | Product List | Glossary On
Versions: 1 2 3 4 5 6 7 8 9 10 11 12 13 14 15 16 17 18 19 20 21 22 23 24 25 26 27 28 29 30 31 32 33 34 35 36 37 38 39 40 41 42 43 44 45 46 47 48 49 50
039
ASUS44 KLIX 210513
RWRLIX
NEW ORLEANS REGIONAL WEATHER ROUNDUP
NATIONAL WEATHER SERVICE NEW ORLEANS LA
1100 PM CST FRI JAN 20 2017

NOTE: "FAIR" INDICATES FEW OR NO CLOUDS BELOW 12,000 FEET WITH NO
      SIGNIFICANT WEATHER AND/OR OBSTRUCTIONS TO VISIBILITY.
      SKY/WX - SKY CONDITION AND SIGNIFICANT WEATHER.
      TMP - AIR TEMPERATURE.     DP    - DEWPOINT TEMPERATURE.
      RH  - RELATIVE HUMIDITY.   PRES  - PRESSURE.
      HI  - HEAT INDEX.          WCI   - WIND CHILL INDEX.

*  THESE STATIONS ARE NOT NWS OR FAA STATIONS AND ARE NOT UNDER
   NWS QUALITY CONTROL.

LAZ038-040-048-061>063-065>067-069-210600-
SOUTHEAST LOUISIANA

CITY           SKY/WX    TMP DP  RH WIND       PRES   REMARKS
N.O. AUDUBON   NOT AVBL
N.O. INTL ARPT MOCLDY    71  70  96 S8        29.77F
N.O. LAKEFRONT CLOUDY    71  71 100 S9        29.79S VSB 1
N.O. DOWNTOWN*   N/A     72  70  93 S10       29.79S
RESERVE*       CLOUDY    72  70  94 CALM      29.78R
SLIDELL        CLOUDY    70  69  97 SE7       29.77F
BATON ROUGE    CLOUDY    70  66  87 SE9       29.76F
BOOTHVILLE     CLOUDY    68  67  96 S12       29.80F
BELLE CHASSE   CLOUDY    70  70 100 S12       29.78S FOG
BOGALUSA*      CLOUDY    64  60  89 CALM      29.80F
GALLIANO*      CLOUDY    72  69  90 S10G17    29.78S FOG
NEW ROADS*       N/A     67  63  87 SE5       29.74F
GONZALES*      CLOUDY    70  69  95 CALM      29.76F
HAMMOND*       CLOUDY    68  64  88 S3        29.79R FOG
HOUMA*         CLOUDY    71  71  99 S8        29.78R FOG
PORT FOURCHON* CLOUDY    72  70  94 S10       29.78F FOG

$$

MSZ070-080>082-210600-
SOUTHERN MISSISSIPPI

CITY           SKY/WX    TMP DP  RH WIND       PRES   REMARKS
MCCOMB         CLOUDY    66  62  87 SE6       29.76F
GULFPORT       FOG       68  68 100 S5        29.80F VSB 1/4
BILOXI         FOG       68  66  94 S3        29.80F VSB 3/4
PASCAGOULA     CLOUDY    66  64  93 CALM      29.82F

$$

COASTAL OBSERVATIONS
LAKE AND NEARSHORE STATIONS

STATION/POSITION TIME  TEMP    WIND        PRES    WAVE
                       AIR SEA DIR/SP/G            HT/PER
                 (UTC) (F)     (DEG/KT/KT) (MB)    (FT/S)
PASCAGOULA       0448   68     200/  3/  5 1009.3
WAVELAND YACHT   0448      67  190/  6/  8 1009.3
GRAND ISLE       0448   69 67  170/  7/ 12 1008.4
SOUTHWEST PASS   0448          180/ 11/ 12   N/A
NEW CANAL        0448      61  190/  5/  8 1007.7
SHELL BEACH      0448      67  160/  7/ 11 1008.9

OFFSHORE STATIONS

STATION/POSITION TIME  TEMP    WIND        PRES    WAVE
                       AIR SEA DIR/SP/G            HT/PER
                 (UTC) (F)     (DEG/KT/KT) (MB)    (FT/S)

$$





USA.gov is the U.S. government's official web portal to all federal, state and local government web resources and services.